Year,Month,Day,Hour,Minute,Value (Times are PST for temperature in C)
2020,08,14,00,00,14.00
2020,08,14,00,01,14.00
2020,08,14,00,02,14.10
2020,08,14,00,03,14.10
2020,08,14,00,04,14.10
2020,08,14,00,05,14.10
2020,08,14,00,06,14.10
2020,08,14,00,07,14.10
2020,08,14,00,08,14.10
2020,08,14,00,09,14.10
2020,08,14,00,10,14.10
2020,08,14,00,11,14.10
2020,08,14,00,12,14.10
2020,08,14,00,13,14.10
2020,08,14,00,14,14.10
2020,08,14,00,15,14.10
2020,08,14,00,16,14.10
2020,08,14,00,17,14.10
2020,08,14,00,18,14.10
2020,08,14,00,19,14.10
2020,08,14,00,20,14.10
2020,08,14,00,21,14.10
2020,08,14,00,22,14.00
2020,08,14,00,23,14.00
2020,08,14,00,24,14.00
2020,08,14,00,25,14.00
2020,08,14,00,26,14.00
2020,08,14,00,27,14.00
2020,08,14,00,28,14.00
2020,08,14,00,29,14.00
2020,08,14,00,30,13.90
2020,08,14,00,31,13.90
2020,08,14,00,32,13.90
2020,08,14,00,33,13.90
2020,08,14,00,34,13.90
2020,08,14,00,35,13.90
2020,08,14,00,36,13.90
2020,08,14,00,37,13.90
2020,08,14,00,38,13.90
2020,08,14,00,39,14.00
2020,08,14,00,40,14.00
2020,08,14,00,41,14.00
2020,08,14,00,42,14.00
2020,08,14,00,43,14.00
2020,08,14,00,44,14.00
2020,08,14,00,45,13.90
2020,08,14,00,46,13.90
2020,08,14,00,47,13.90
2020,08,14,00,48,13.90
2020,08,14,00,49,13.90
2020,08,14,00,50,13.90
2020,08,14,00,51,13.80
2020,08,14,00,52,13.80
2020,08,14,00,53,13.80
2020,08,14,00,54,13.80
2020,08,14,00,55,13.80
2020,08,14,00,56,13.80
2020,08,14,00,57,13.80
2020,08,14,00,58,13.70
2020,08,14,00,59,13.70
2020,08,14,01,00,13.70
2020,08,14,01,01,13.70
2020,08,14,01,02,13.70
2020,08,14,01,03,13.70
2020,08,14,01,04,13.70
2020,08,14,01,05,13.70
2020,08,14,01,06,13.70
2020,08,14,01,07,13.70
2020,08,14,01,08,13.70
2020,08,14,01,09,13.70
2020,08,14,01,10,13.70
2020,08,14,01,11,13.70
2020,08,14,01,12,13.70
2020,08,14,01,13,13.70
2020,08,14,01,14,13.70
2020,08,14,01,15,13.70
2020,08,14,01,16,13.70
2020,08,14,01,17,13.70
2020,08,14,01,18,13.70
2020,08,14,01,19,13.70
2020,08,14,01,20,13.70
2020,08,14,01,21,13.70
2020,08,14,01,22,13.70
2020,08,14,01,23,13.70
2020,08,14,01,24,13.70
2020,08,14,01,25,13.70
2020,08,14,01,26,13.70
2020,08,14,01,27,13.70
2020,08,14,01,28,13.70
2020,08,14,01,29,13.70
2020,08,14,01,30,13.70
2020,08,14,01,31,13.70
2020,08,14,01,32,13.70
2020,08,14,01,33,13.70
2020,08,14,01,34,13.70
2020,08,14,01,35,13.70
2020,08,14,01,36,13.70
2020,08,14,01,37,13.70
2020,08,14,01,38,13.70
2020,08,14,01,39,13.70
2020,08,14,01,40,13.70
2020,08,14,01,41,13.70
2020,08,14,01,42,13.70
2020,08,14,01,43,13.70
2020,08,14,01,44,13.70
2020,08,14,01,45,13.70
2020,08,14,01,46,13.70
2020,08,14,01,47,13.60
2020,08,14,01,48,13.60
2020,08,14,01,49,13.60
2020,08,14,01,50,13.60
2020,08,14,01,51,13.60
2020,08,14,01,52,13.60
2020,08,14,01,53,13.60
2020,08,14,01,54,13.60
2020,08,14,01,55,13.60
2020,08,14,01,56,13.60
2020,08,14,01,57,13.60
2020,08,14,01,58,13.60
2020,08,14,01,59,13.60
2020,08,14,02,00,13.60
2020,08,14,02,01,13.60
2020,08,14,02,02,13.60
2020,08,14,02,03,13.60
2020,08,14,02,04,13.60
2020,08,14,02,05,13.60
2020,08,14,02,06,13.60
2020,08,14,02,07,13.60
2020,08,14,02,08,13.60
2020,08,14,02,09,13.60
2020,08,14,02,10,13.60
2020,08,14,02,11,13.60
2020,08,14,02,12,13.60
2020,08,14,02,13,13.60
2020,08,14,02,14,13.60
2020,08,14,02,15,13.60
2020,08,14,02,16,13.60
2020,08,14,02,17,13.60
2020,08,14,02,18,13.60
2020,08,14,02,19,13.60
2020,08,14,02,20,13.60
2020,08,14,02,21,13.60
2020,08,14,02,22,13.60
2020,08,14,02,23,13.60
2020,08,14,02,24,13.60
2020,08,14,02,25,13.60
2020,08,14,02,26,13.60
2020,08,14,02,27,13.60
2020,08,14,02,28,13.60
2020,08,14,02,29,13.60
2020,08,14,02,30,13.60
2020,08,14,02,31,13.60
2020,08,14,02,32,13.60
2020,08,14,02,33,13.50
2020,08,14,02,34,13.50
2020,08,14,02,35,13.50
2020,08,14,02,36,13.50
2020,08,14,02,37,13.50
2020,08,14,02,38,13.50
2020,08,14,02,39,13.50
2020,08,14,02,40,13.50
2020,08,14,02,41,13.50
2020,08,14,02,42,13.50
2020,08,14,02,43,13.60
2020,08,14,02,44,13.60
2020,08,14,02,45,13.60
2020,08,14,02,46,13.50
2020,08,14,02,47,13.50
2020,08,14,02,48,13.50
2020,08,14,02,49,13.50
2020,08,14,02,50,13.50
2020,08,14,02,51,13.50
2020,08,14,02,52,13.50
2020,08,14,02,53,13.40
2020,08,14,02,54,13.40
2020,08,14,02,55,13.40
2020,08,14,02,56,13.40
2020,08,14,02,57,13.40
2020,08,14,02,58,13.40
2020,08,14,02,59,13.40
2020,08,14,03,00,13.30
2020,08,14,03,01,13.30
2020,08,14,03,02,13.30
2020,08,14,03,03,13.30
2020,08,14,03,04,13.30
2020,08,14,03,05,13.30
2020,08,14,03,06,13.30
2020,08,14,03,07,13.30
2020,08,14,03,08,13.30
2020,08,14,03,09,13.30
2020,08,14,03,10,13.30
2020,08,14,03,11,13.30
2020,08,14,03,12,13.30
2020,08,14,03,13,13.20
2020,08,14,03,14,13.20
2020,08,14,03,15,13.20
2020,08,14,03,16,13.20
2020,08,14,03,17,13.20
2020,08,14,03,18,13.20
2020,08,14,03,19,13.20
2020,08,14,03,20,13.20
2020,08,14,03,21,13.20
2020,08,14,03,22,13.10
2020,08,14,03,23,13.10
2020,08,14,03,24,13.10
2020,08,14,03,25,13.10
2020,08,14,03,26,13.10
2020,08,14,03,27,13.00
2020,08,14,03,28,13.00
2020,08,14,03,29,13.00
2020,08,14,03,30,13.00
2020,08,14,03,31,13.00
2020,08,14,03,32,13.00
2020,08,14,03,33,13.00
2020,08,14,03,34,13.00
2020,08,14,03,35,13.00
2020,08,14,03,36,13.00
2020,08,14,03,37,13.00
2020,08,14,03,38,13.00
2020,08,14,03,39,13.00
2020,08,14,03,40,13.00
2020,08,14,03,41,13.00
2020,08,14,03,42,13.00
2020,08,14,03,43,12.90
2020,08,14,03,44,12.90
2020,08,14,03,45,12.90
2020,08,14,03,46,12.90
2020,08,14,03,47,12.90
2020,08,14,03,48,12.90
2020,08,14,03,49,12.80
2020,08,14,03,50,12.80
2020,08,14,03,51,12.80
2020,08,14,03,52,12.80
2020,08,14,03,53,12.80
2020,08,14,03,54,12.80
2020,08,14,03,55,12.80
2020,08,14,03,56,12.80
2020,08,14,03,57,12.80
2020,08,14,03,58,12.80
2020,08,14,03,59,12.80
2020,08,14,04,00,12.70
2020,08,14,04,01,12.70
2020,08,14,04,02,12.70
2020,08,14,04,03,12.60
2020,08,14,04,04,12.60
2020,08,14,04,05,12.60
2020,08,14,04,06,12.60
2020,08,14,04,07,12.50
2020,08,14,04,08,12.50
2020,08,14,04,09,12.50
2020,08,14,04,10,12.40
2020,08,14,04,11,12.40
2020,08,14,04,12,12.30
2020,08,14,04,13,12.30
2020,08,14,04,14,12.30
2020,08,14,04,15,12.30
2020,08,14,04,16,12.30
2020,08,14,04,17,12.30
2020,08,14,04,18,12.30
2020,08,14,04,19,12.30
2020,08,14,04,20,12.30
2020,08,14,04,21,12.30
2020,08,14,04,22,12.30
2020,08,14,04,23,12.30
2020,08,14,04,24,12.30
2020,08,14,04,25,12.30
2020,08,14,04,26,12.30
2020,08,14,04,27,12.30
2020,08,14,04,28,12.20
2020,08,14,04,29,12.20
2020,08,14,04,30,12.20
2020,08,14,04,31,12.20
2020,08,14,04,32,12.10
2020,08,14,04,33,12.10
2020,08,14,04,34,12.10
2020,08,14,04,35,12.10
2020,08,14,04,36,12.00
2020,08,14,04,37,12.00
2020,08,14,04,38,12.00
2020,08,14,04,39,11.90
2020,08,14,04,40,11.90
2020,08,14,04,41,11.90
2020,08,14,04,42,11.90
2020,08,14,04,43,11.80
2020,08,14,04,44,11.80
2020,08,14,04,45,11.80
2020,08,14,04,46,11.80
2020,08,14,04,47,11.80
2020,08,14,04,48,11.80
2020,08,14,04,49,11.80
2020,08,14,04,50,11.80
2020,08,14,04,51,11.80
2020,08,14,04,52,11.70
2020,08,14,04,53,11.70
2020,08,14,04,54,11.70
2020,08,14,04,55,11.70
2020,08,14,04,56,11.70
2020,08,14,04,57,11.70
2020,08,14,04,58,11.70
2020,08,14,04,59,11.70
2020,08,14,05,00,11.80
2020,08,14,05,01,11.80
2020,08,14,05,02,11.80
2020,08,14,05,03,11.80
2020,08,14,05,04,11.80
2020,08,14,05,05,11.80
2020,08,14,05,06,11.80
2020,08,14,05,07,11.80
2020,08,14,05,08,11.80
2020,08,14,05,09,11.80
2020,08,14,05,10,11.80
2020,08,14,05,11,11.80
2020,08,14,05,12,11.80
2020,08,14,05,13,11.80
2020,08,14,05,14,11.80
2020,08,14,05,15,11.80
2020,08,14,05,16,11.80
2020,08,14,05,17,11.80
2020,08,14,05,18,11.80
2020,08,14,05,19,11.80
2020,08,14,05,20,11.80
2020,08,14,05,21,11.80
2020,08,14,05,22,11.90
2020,08,14,05,23,11.90
2020,08,14,05,24,12.00
2020,08,14,05,25,12.00
2020,08,14,05,26,12.00
2020,08,14,05,27,12.00
2020,08,14,05,28,12.00
2020,08,14,05,29,12.00
2020,08,14,05,30,12.00
2020,08,14,05,31,12.00
2020,08,14,05,32,12.00
2020,08,14,05,33,11.90
2020,08,14,05,34,11.90
2020,08,14,05,35,11.90
2020,08,14,05,36,11.90
2020,08,14,05,37,11.80
2020,08,14,05,38,11.80
2020,08,14,05,39,11.80
2020,08,14,05,40,11.80
2020,08,14,05,41,11.80
2020,08,14,05,42,11.80
2020,08,14,05,43,11.80
2020,08,14,05,44,11.80
2020,08,14,05,45,11.80
2020,08,14,05,46,11.80
2020,08,14,05,47,11.70
2020,08,14,05,48,11.70
2020,08,14,05,49,11.60
2020,08,14,05,50,11.60
2020,08,14,05,51,11.60
2020,08,14,05,52,11.60
2020,08,14,05,53,11.60
2020,08,14,05,54,11.60
2020,08,14,05,55,11.60
2020,08,14,05,56,11.60
2020,08,14,05,57,11.60
2020,08,14,05,58,11.60
2020,08,14,05,59,11.60
2020,08,14,06,00,11.60
2020,08,14,06,01,11.60
2020,08,14,06,02,11.60
2020,08,14,06,03,11.60
2020,08,14,06,04,11.60
2020,08,14,06,05,11.60
2020,08,14,06,06,11.50
2020,08,14,06,07,11.40
2020,08,14,06,08,11.40
2020,08,14,06,09,11.40
2020,08,14,06,10,11.40
2020,08,14,06,11,11.40
2020,08,14,06,12,11.40
2020,08,14,06,13,11.40
2020,08,14,06,14,11.40
2020,08,14,06,15,11.30
2020,08,14,06,16,11.30
2020,08,14,06,17,11.30
2020,08,14,06,18,11.30
2020,08,14,06,19,11.20
2020,08,14,06,20,11.20
2020,08,14,06,21,11.20
2020,08,14,06,22,11.20
2020,08,14,06,23,11.20
2020,08,14,06,24,11.20
2020,08,14,06,25,11.10
2020,08,14,06,26,11.10
2020,08,14,06,27,11.10
2020,08,14,06,28,11.10
2020,08,14,06,29,11.10
2020,08,14,06,30,11.10
2020,08,14,06,31,11.10
2020,08,14,06,32,11.10
2020,08,14,06,33,11.10
2020,08,14,06,34,11.10
2020,08,14,06,35,11.10
2020,08,14,06,36,11.10
2020,08,14,06,37,11.10
2020,08,14,06,38,11.10
2020,08,14,06,39,11.10
2020,08,14,06,40,11.10
2020,08,14,06,41,11.10
2020,08,14,06,42,11.10
2020,08,14,06,43,11.10
2020,08,14,06,44,11.10
2020,08,14,06,45,11.10
2020,08,14,06,46,11.10
2020,08,14,06,47,11.20
2020,08,14,06,48,11.20
2020,08,14,06,49,11.20
2020,08,14,06,50,11.20
2020,08,14,06,51,11.20
2020,08,14,06,52,11.20
2020,08,14,06,53,11.20
2020,08,14,06,54,11.20
2020,08,14,06,55,11.20
2020,08,14,06,56,11.20
2020,08,14,06,57,11.30
2020,08,14,06,58,11.30
2020,08,14,06,59,11.30
2020,08,14,07,00,11.30
2020,08,14,07,01,11.30
2020,08,14,07,02,11.40
2020,08,14,07,03,11.40
2020,08,14,07,04,11.40
2020,08,14,07,05,11.40
2020,08,14,07,06,11.40
2020,08,14,07,07,11.40
2020,08,14,07,08,11.60
2020,08,14,07,09,11.60
2020,08,14,07,10,11.60
2020,08,14,07,11,11.60
2020,08,14,07,12,11.60
2020,08,14,07,13,11.70
2020,08,14,07,14,11.70
2020,08,14,07,15,11.70
2020,08,14,07,16,11.70
2020,08,14,07,17,11.70
2020,08,14,07,18,11.80
2020,08,14,07,19,11.80
2020,08,14,07,20,11.80
2020,08,14,07,21,11.70
2020,08,14,07,22,11.80
2020,08,14,07,23,11.80
2020,08,14,07,24,11.80
2020,08,14,07,25,11.80
2020,08,14,07,26,11.80
2020,08,14,07,27,11.80
2020,08,14,07,28,11.90
2020,08,14,07,29,11.90
2020,08,14,07,30,12.00
2020,08,14,07,31,12.00
2020,08,14,07,32,12.10
2020,08,14,07,33,12.10
2020,08,14,07,34,12.20
2020,08,14,07,35,12.20
2020,08,14,07,36,12.20
2020,08,14,07,37,12.30
2020,08,14,07,38,12.30
2020,08,14,07,39,12.30
2020,08,14,07,40,12.30
2020,08,14,07,41,12.40
2020,08,14,07,42,12.40
2020,08,14,07,43,12.50
2020,08,14,07,44,12.50
2020,08,14,07,45,12.50
2020,08,14,07,46,12.60
2020,08,14,07,47,12.60
2020,08,14,07,48,12.70
2020,08,14,07,49,12.70
2020,08,14,07,50,12.80
2020,08,14,07,51,12.80
2020,08,14,07,52,12.80
2020,08,14,07,53,12.90
2020,08,14,07,54,12.90
2020,08,14,07,55,13.00
2020,08,14,07,56,13.00
2020,08,14,07,57,13.00
2020,08,14,07,58,13.10
2020,08,14,07,59,13.10
2020,08,14,08,00,13.10
2020,08,14,08,01,13.20
2020,08,14,08,02,13.20
2020,08,14,08,03,13.20
2020,08,14,08,04,13.20
2020,08,14,08,05,13.30
2020,08,14,08,06,13.30
2020,08,14,08,07,13.30
2020,08,14,08,08,13.30
2020,08,14,08,09,13.30
2020,08,14,08,10,13.40
2020,08,14,08,11,13.40
2020,08,14,08,12,13.50
2020,08,14,08,13,13.50
2020,08,14,08,14,13.50
2020,08,14,08,15,13.50
2020,08,14,08,16,13.60
2020,08,14,08,17,13.60
2020,08,14,08,18,13.70
2020,08,14,08,19,13.70
2020,08,14,08,20,13.80
2020,08,14,08,21,13.80
2020,08,14,08,22,13.70
2020,08,14,08,23,13.70
2020,08,14,08,24,13.80
2020,08,14,08,25,13.80
2020,08,14,08,26,13.80
2020,08,14,08,27,13.80
2020,08,14,08,28,13.80
2020,08,14,08,29,13.80
2020,08,14,08,30,13.80
2020,08,14,08,31,13.80
2020,08,14,08,32,13.90
2020,08,14,08,33,13.90
2020,08,14,08,34,13.90
2020,08,14,08,35,14.00
2020,08,14,08,36,14.00
2020,08,14,08,37,14.00
2020,08,14,08,38,14.10
2020,08,14,08,39,14.10
2020,08,14,08,40,14.10
2020,08,14,08,41,14.10
2020,08,14,08,42,14.10
2020,08,14,08,43,14.20
2020,08,14,08,44,14.20
2020,08,14,08,45,14.20
2020,08,14,08,46,14.20
2020,08,14,08,47,14.30
2020,08,14,08,48,14.40
2020,08,14,08,49,14.50
2020,08,14,08,50,14.60
2020,08,14,08,51,14.70
2020,08,14,08,52,14.90
2020,08,14,08,53,15.10
2020,08,14,08,54,15.20
2020,08,14,08,55,15.20
2020,08,14,08,56,15.30
2020,08,14,08,57,15.30
2020,08,14,08,58,15.30
2020,08,14,08,59,15.30
2020,08,14,09,00,15.30
2020,08,14,09,01,15.30
2020,08,14,09,02,15.30
2020,08,14,09,03,15.30
2020,08,14,09,04,15.30
2020,08,14,09,05,15.30
2020,08,14,09,06,15.30
2020,08,14,09,07,15.30
2020,08,14,09,08,15.30
2020,08,14,09,09,15.40
2020,08,14,09,10,15.30
2020,08,14,09,11,15.30
2020,08,14,09,12,15.40
2020,08,14,09,13,15.40
2020,08,14,09,14,15.50
2020,08,14,09,15,15.50
2020,08,14,09,16,15.60
2020,08,14,09,17,15.60
2020,08,14,09,18,15.70
2020,08,14,09,19,15.70
2020,08,14,09,20,15.80
2020,08,14,09,21,15.80
2020,08,14,09,22,15.80
2020,08,14,09,23,15.70
2020,08,14,09,24,15.60
2020,08,14,09,25,15.60
2020,08,14,09,26,15.50
2020,08,14,09,27,15.40
2020,08,14,09,28,15.40
2020,08,14,09,29,15.50
2020,08,14,09,30,15.50
2020,08,14,09,31,15.50
2020,08,14,09,32,15.50
2020,08,14,09,33,15.50
2020,08,14,09,34,15.50
2020,08,14,09,35,15.40
2020,08,14,09,36,15.40
2020,08,14,09,37,15.50
2020,08,14,09,38,15.50
2020,08,14,09,39,15.60
2020,08,14,09,40,15.60
2020,08,14,09,41,15.60
2020,08,14,09,42,15.60
2020,08,14,09,43,15.70
2020,08,14,09,44,15.70
2020,08,14,09,45,15.70
2020,08,14,09,46,15.70
2020,08,14,09,47,15.80
2020,08,14,09,48,15.80
2020,08,14,09,49,15.80
2020,08,14,09,50,15.80
2020,08,14,09,51,15.80
2020,08,14,09,52,15.80
2020,08,14,09,53,15.80
2020,08,14,09,54,15.80
2020,08,14,09,55,15.90
2020,08,14,09,56,15.90
2020,08,14,09,57,16.00
2020,08,14,09,58,16.10
2020,08,14,09,59,16.10
2020,08,14,10,00,16.10
2020,08,14,10,01,16.20
2020,08,14,10,02,16.20
2020,08,14,10,03,16.20
2020,08,14,10,04,16.20
2020,08,14,10,05,16.20
2020,08,14,10,06,16.30
2020,08,14,10,07,16.30
2020,08,14,10,08,16.20
2020,08,14,10,09,16.20
2020,08,14,10,10,16.10
2020,08,14,10,11,16.10
2020,08,14,10,12,16.10
2020,08,14,10,13,16.10
2020,08,14,10,14,16.10
2020,08,14,10,15,16.10
2020,08,14,10,16,16.20
2020,08,14,10,17,16.30
2020,08,14,10,18,16.40
2020,08,14,10,19,16.40
2020,08,14,10,20,16.30
2020,08,14,10,21,16.30
2020,08,14,10,22,16.20
2020,08,14,10,23,16.20
2020,08,14,10,24,16.20
2020,08,14,10,25,16.20
2020,08,14,10,26,16.10
2020,08,14,10,27,16.10
2020,08,14,10,28,16.10
2020,08,14,10,29,16.10
2020,08,14,10,30,16.10
2020,08,14,10,31,16.10
2020,08,14,10,32,16.10
2020,08,14,10,33,16.10
2020,08,14,10,34,16.10
2020,08,14,10,35,16.10
2020,08,14,10,36,16.10
2020,08,14,10,37,16.10
2020,08,14,10,38,16.10
2020,08,14,10,39,16.10
2020,08,14,10,40,15.90
2020,08,14,10,41,15.80
2020,08,14,10,42,15.80
2020,08,14,10,43,15.80
2020,08,14,10,44,15.80
2020,08,14,10,45,15.80
2020,08,14,10,46,15.90
2020,08,14,10,47,15.90
2020,08,14,10,48,15.90
2020,08,14,10,49,15.80
2020,08,14,10,50,15.80
2020,08,14,10,51,15.80
2020,08,14,10,52,15.90
2020,08,14,10,53,15.90
2020,08,14,10,54,15.90
2020,08,14,10,55,16.00
2020,08,14,10,56,16.10
2020,08,14,10,57,16.10
2020,08,14,10,58,16.20
2020,08,14,10,59,16.20
2020,08,14,11,00,16.20
2020,08,14,11,01,16.20
2020,08,14,11,02,16.30
2020,08,14,11,03,16.30
2020,08,14,11,04,16.20
2020,08,14,11,05,16.20
2020,08,14,11,06,16.30
2020,08,14,11,07,16.40
2020,08,14,11,08,16.40
2020,08,14,11,09,16.40
2020,08,14,11,10,16.40
2020,08,14,11,11,16.40
2020,08,14,11,12,16.40
2020,08,14,11,13,16.40
2020,08,14,11,14,16.40
2020,08,14,11,15,16.40
2020,08,14,11,16,16.40
2020,08,14,11,17,16.40
2020,08,14,11,18,16.50
2020,08,14,11,19,16.50
2020,08,14,11,20,16.40
2020,08,14,11,21,16.50
2020,08,14,11,22,16.60
2020,08,14,11,23,16.60
2020,08,14,11,24,16.60
2020,08,14,11,25,16.70
2020,08,14,11,26,16.70
2020,08,14,11,27,16.70
2020,08,14,11,28,16.80
2020,08,14,11,29,16.70
2020,08,14,11,30,16.70
2020,08,14,11,31,16.70
2020,08,14,11,32,16.70
2020,08,14,11,33,16.70
2020,08,14,11,34,16.70
2020,08,14,11,35,16.70
2020,08,14,11,36,16.80
2020,08,14,11,37,16.90
2020,08,14,11,38,16.90
2020,08,14,11,39,17.00
2020,08,14,11,40,17.00
2020,08,14,11,41,16.90
2020,08,14,11,42,16.80
2020,08,14,11,43,16.80
2020,08,14,11,44,16.80
2020,08,14,11,45,16.80
2020,08,14,11,46,16.80
2020,08,14,11,47,16.80
2020,08,14,11,48,16.80
2020,08,14,11,49,16.80
2020,08,14,11,50,16.80
2020,08,14,11,51,16.90
2020,08,14,11,52,16.90
2020,08,14,11,53,16.90
2020,08,14,11,54,16.90
2020,08,14,11,55,16.90
2020,08,14,11,56,16.90
2020,08,14,11,57,16.90
2020,08,14,11,58,16.90
2020,08,14,11,59,16.80
2020,08,14,12,00,16.70
2020,08,14,12,01,16.70
2020,08,14,12,02,16.70
2020,08,14,12,03,16.60
2020,08,14,12,04,16.70
2020,08,14,12,05,16.70
2020,08,14,12,06,16.70
2020,08,14,12,07,16.80
2020,08,14,12,08,16.80
2020,08,14,12,09,16.90
2020,08,14,12,10,16.90
2020,08,14,12,11,16.90
2020,08,14,12,12,16.90
2020,08,14,12,13,16.80
2020,08,14,12,14,16.80
2020,08,14,12,15,16.80
2020,08,14,12,16,16.70
2020,08,14,12,17,16.70
2020,08,14,12,18,16.70
2020,08,14,12,19,16.80
2020,08,14,12,20,16.90
2020,08,14,12,21,17.00
2020,08,14,12,22,17.00
2020,08,14,12,23,17.00
2020,08,14,12,24,17.00
2020,08,14,12,25,17.00
2020,08,14,12,26,17.00
2020,08,14,12,27,17.00
2020,08,14,12,28,17.00
2020,08,14,12,29,16.90
2020,08,14,12,30,17.00
2020,08,14,12,31,17.00
2020,08,14,12,32,17.10
2020,08,14,12,33,17.20
2020,08,14,12,34,17.10
2020,08,14,12,35,17.10
2020,08,14,12,36,17.00
2020,08,14,12,37,17.00
2020,08,14,12,38,17.00
2020,08,14,12,39,17.00
2020,08,14,12,40,17.00
2020,08,14,12,41,17.00
2020,08,14,12,42,17.00
2020,08,14,12,43,17.00
2020,08,14,12,44,17.00
2020,08,14,12,45,17.00
2020,08,14,12,46,16.80
2020,08,14,12,47,16.70
2020,08,14,12,48,16.50
2020,08,14,12,49,16.30
2020,08,14,12,50,16.20
2020,08,14,12,51,16.10
2020,08,14,12,52,16.00
2020,08,14,12,53,15.90
2020,08,14,12,54,15.90
2020,08,14,12,55,16.00
2020,08,14,12,56,16.10
2020,08,14,12,57,16.20
2020,08,14,12,58,16.30
2020,08,14,12,59,16.30
2020,08,14,13,00,16.30
2020,08,14,13,01,16.20
2020,08,14,13,02,16.10
2020,08,14,13,03,15.90
2020,08,14,13,04,15.80
2020,08,14,13,05,15.70
2020,08,14,13,06,15.70
2020,08,14,13,07,15.60
2020,08,14,13,08,15.60
2020,08,14,13,09,15.50
2020,08,14,13,10,15.50
2020,08,14,13,11,15.50
2020,08,14,13,12,15.60
2020,08,14,13,13,15.60
2020,08,14,13,14,15.60
2020,08,14,13,15,15.70
2020,08,14,13,16,15.80
2020,08,14,13,17,15.80
2020,08,14,13,18,15.80
2020,08,14,13,19,15.80
2020,08,14,13,20,15.60
2020,08,14,13,21,15.60
2020,08,14,13,22,15.50
2020,08,14,13,23,15.40
2020,08,14,13,24,15.30
2020,08,14,13,25,15.30
2020,08,14,13,26,15.40
2020,08,14,13,27,15.50
2020,08,14,13,28,15.50
2020,08,14,13,29,15.50
2020,08,14,13,30,15.50
2020,08,14,13,31,15.50
2020,08,14,13,32,15.50
2020,08,14,13,33,15.50
2020,08,14,13,34,15.50
2020,08,14,13,35,15.50
2020,08,14,13,36,15.40
2020,08,14,13,37,15.50
2020,08,14,13,38,15.50
2020,08,14,13,39,15.60
2020,08,14,13,40,15.70
2020,08,14,13,41,15.80
2020,08,14,13,42,15.80
2020,08,14,13,43,15.80
2020,08,14,13,44,15.80
2020,08,14,13,45,15.80
2020,08,14,13,46,15.70
2020,08,14,13,47,15.60
2020,08,14,13,48,15.50
2020,08,14,13,49,15.40
2020,08,14,13,50,15.40
2020,08,14,13,51,15.50
2020,08,14,13,52,15.50
2020,08,14,13,53,15.60
2020,08,14,13,54,15.60
2020,08,14,13,55,15.50
2020,08,14,13,56,15.50
2020,08,14,13,57,15.50
2020,08,14,13,58,15.50
2020,08,14,13,59,15.50
2020,08,14,14,00,15.50
2020,08,14,14,01,15.50
2020,08,14,14,02,15.50
2020,08,14,14,03,15.50
2020,08,14,14,04,15.40
2020,08,14,14,05,15.40
2020,08,14,14,06,15.50
2020,08,14,14,07,15.60
2020,08,14,14,08,15.70
2020,08,14,14,09,15.80
2020,08,14,14,10,15.90
2020,08,14,14,11,15.90
2020,08,14,14,12,15.80
2020,08,14,14,13,15.80
2020,08,14,14,14,15.70
2020,08,14,14,15,15.70
2020,08,14,14,16,15.70
2020,08,14,14,17,15.70
2020,08,14,14,18,15.70
2020,08,14,14,19,15.70
2020,08,14,14,20,15.60
2020,08,14,14,21,15.60
2020,08,14,14,22,15.60
2020,08,14,14,23,15.70
2020,08,14,14,24,15.70
2020,08,14,14,25,15.70
2020,08,14,14,26,15.80
2020,08,14,14,27,15.90
2020,08,14,14,28,16.00
2020,08,14,14,29,16.10
2020,08,14,14,30,16.30
2020,08,14,14,31,16.30
2020,08,14,14,32,16.30
2020,08,14,14,33,16.40
2020,08,14,14,34,16.40
2020,08,14,14,35,16.50
2020,08,14,14,36,16.60
2020,08,14,14,37,16.60
2020,08,14,14,38,16.60
2020,08,14,14,39,16.50
2020,08,14,14,40,16.40
2020,08,14,14,41,16.40
2020,08,14,14,42,16.40
2020,08,14,14,43,16.40
2020,08,14,14,44,16.40
2020,08,14,14,45,16.40
2020,08,14,14,46,16.40
2020,08,14,14,47,16.40
2020,08,14,14,48,16.40
2020,08,14,14,49,16.40
2020,08,14,14,50,16.50
2020,08,14,14,51,16.60
2020,08,14,14,52,16.60
2020,08,14,14,53,16.70
2020,08,14,14,54,16.70
2020,08,14,14,55,16.70
2020,08,14,14,56,16.70
2020,08,14,14,57,16.70
2020,08,14,14,58,16.70
2020,08,14,14,59,16.70
2020,08,14,15,00,16.70
2020,08,14,15,01,16.70
2020,08,14,15,02,16.70
2020,08,14,15,03,16.70
2020,08,14,15,04,16.60
2020,08,14,15,05,16.60
2020,08,14,15,06,16.40
2020,08,14,15,07,16.30
2020,08,14,15,08,16.30
2020,08,14,15,09,16.30
2020,08,14,15,10,16.30
2020,08,14,15,11,16.30
2020,08,14,15,12,16.40
2020,08,14,15,13,16.50
2020,08,14,15,14,16.70
2020,08,14,15,15,16.80
2020,08,14,15,16,16.80
2020,08,14,15,17,16.90
2020,08,14,15,18,16.80
2020,08,14,15,19,16.70
2020,08,14,15,20,16.70
2020,08,14,15,21,16.70
2020,08,14,15,22,16.70
2020,08,14,15,23,16.70
2020,08,14,15,24,16.70
2020,08,14,15,25,16.70
2020,08,14,15,26,16.70
2020,08,14,15,27,16.70
2020,08,14,15,28,16.70
2020,08,14,15,29,16.70
2020,08,14,15,30,16.80
2020,08,14,15,31,16.80
2020,08,14,15,32,16.80
2020,08,14,15,33,16.70
2020,08,14,15,34,16.70
2020,08,14,15,35,16.70
2020,08,14,15,36,16.70
2020,08,14,15,37,16.80
2020,08,14,15,38,16.90
2020,08,14,15,39,17.00
2020,08,14,15,40,17.00
2020,08,14,15,41,17.00
2020,08,14,15,42,16.90
2020,08,14,15,43,16.80
2020,08,14,15,44,16.70
2020,08,14,15,45,16.80
2020,08,14,15,46,16.90
2020,08,14,15,47,16.90
2020,08,14,15,48,16.90
2020,08,14,15,49,16.90
2020,08,14,15,50,17.00
2020,08,14,15,51,17.00
2020,08,14,15,52,17.00
2020,08,14,15,53,17.00
2020,08,14,15,54,17.00
2020,08,14,15,55,17.00
2020,08,14,15,56,17.00
2020,08,14,15,57,17.10
2020,08,14,15,58,17.20
2020,08,14,15,59,17.30
2020,08,14,16,00,17.30
2020,08,14,16,01,17.20
2020,08,14,16,02,17.10
2020,08,14,16,03,17.00
2020,08,14,16,04,17.00
2020,08,14,16,05,17.00
2020,08,14,16,06,17.10
2020,08,14,16,07,17.10
2020,08,14,16,08,17.10
2020,08,14,16,09,17.00
2020,08,14,16,10,17.00
2020,08,14,16,11,16.90
2020,08,14,16,12,16.90
2020,08,14,16,13,16.80
2020,08,14,16,14,16.70
2020,08,14,16,15,16.70
2020,08,14,16,16,16.70
2020,08,14,16,17,16.80
2020,08,14,16,18,16.90
2020,08,14,16,19,17.00
2020,08,14,16,20,17.00
2020,08,14,16,21,16.90
2020,08,14,16,22,16.90
2020,08,14,16,23,16.80
2020,08,14,16,24,16.70
2020,08,14,16,25,16.80
2020,08,14,16,26,16.80
2020,08,14,16,27,16.80
2020,08,14,16,28,16.80
2020,08,14,16,29,16.90
2020,08,14,16,30,17.00
2020,08,14,16,31,17.10
2020,08,14,16,32,17.30
2020,08,14,16,33,17.30
2020,08,14,16,34,17.30
2020,08,14,16,35,17.30
2020,08,14,16,36,17.40
2020,08,14,16,37,17.40
2020,08,14,16,38,17.30
2020,08,14,16,39,17.20
2020,08,14,16,40,17.10
2020,08,14,16,41,17.10
2020,08,14,16,42,17.10
2020,08,14,16,43,17.20
2020,08,14,16,44,17.30
2020,08,14,16,45,17.30
2020,08,14,16,46,17.30
2020,08,14,16,47,17.30
2020,08,14,16,48,17.20
2020,08,14,16,49,17.10
2020,08,14,16,50,17.10
2020,08,14,16,51,17.20
2020,08,14,16,52,17.20
2020,08,14,16,53,17.20
2020,08,14,16,54,17.20
2020,08,14,16,55,17.20
2020,08,14,16,56,17.30
2020,08,14,16,57,17.30
2020,08,14,16,58,17.30
2020,08,14,16,59,17.30
2020,08,14,17,00,17.30
2020,08,14,17,01,17.30
2020,08,14,17,02,17.30
2020,08,14,17,03,17.30
2020,08,14,17,04,17.40
2020,08,14,17,05,17.50
2020,08,14,17,06,17.50
2020,08,14,17,07,17.40
2020,08,14,17,08,17.40
2020,08,14,17,09,17.40
2020,08,14,17,10,17.40
2020,08,14,17,11,17.30
2020,08,14,17,12,17.30
2020,08,14,17,13,17.30
2020,08,14,17,14,17.30
2020,08,14,17,15,17.30
2020,08,14,17,16,17.30
2020,08,14,17,17,17.30
2020,08,14,17,18,17.30
2020,08,14,17,19,17.30